{"data":{"norad_id":67361,"intl_designator":"2026-003AD","name":"STARLINK-35306","alt_names":[],"object_type":"PAYLOAD","status":"ACTIVE","operator":null,"country":"US","launch_date":"2026-01-09","launch_site_code":"AFETR","launch_vehicle":null,"mission":null,"orbit_class":"UNKNOWN","rcs_meters":null,"size_class":null,"mass_kg":null,"dimensions":null,"purposes":["comms"],"wikipedia_slug":null,"has_3d_model":false,"image_url":null,"decayed_at":null,"tle_current":{"epoch":"2026-09-19T13:16:50.110464Z","epoch_age_seconds":157187,"freshness":"FRESH","line1":"1 67361U 26003AD  26262.55335776  .00011659  00000+0  43247-3 0  9997","line2":"2 67361  42.9973 212.1518 0001137 275.3187  84.7534 15.27583757 38477","mean_motion":15.27583757,"eccentricity":0.0001137,"inclination_deg":42.9973,"raan_deg":212.1518,"arg_perigee_deg":275.3187,"mean_anomaly_deg":84.7534,"bstar":0.00043247,"rev_number":3847,"period_min":94.266516870276,"perigee_km":482.25773067312,"apogee_km":483.81796183316,"semimajor_km":6861.1748462531,"source":"CELESTRAK","updated_at":"2026-09-20T09:00:43.517747Z"}}}